User: anonymous   Login
Location: Unspecified
(0.0000°N, 0.0000°E)
Time: 22:55:57
(UTC+00:00)
Language:

USA 82 - Orbit

View from above orbital plane
View from above orbital plane
View from above satellite
View from above satellite

Ground track
Ground track

The orbit data is extracted from the following two-line orbital elements,

1 22009U 92037A   18172.83474965 0.00000000  00000-0  00000-0 0    02
2 22009  12.2030  30.7980 0011759 318.0670  41.8550  0.98808356    08
Epoch (UTC): 21 June 2018 20:02:02
Eccentricity: 0.0011759
inclination: 12.2030°
perigee height: 36151 km
apogee height: 36251 km
right ascension of ascending node: 30.7980°
argument of perigee: 318.0670°
revolutions per day: 0.98808356
mean anomaly at epoch: 41.8550°
orbit number at epoch: 0

The dashed part of the orbit path shows where the satellite is in the earth's shadow,  

DLR